Regional Weather Roundup
Issued by NWS

Home | Current Version | Previous Version | Graphics & Text | Print | Product List | Glossary On
Versions: 1 2 3 4 5 6 7 8 9 10 11 12 13 14 15 16 17 18 19 20 21 22 23 24 25 26 27 28 29 30 31 32 33 34 35 36 37 38 39 40 41 42 43 44 45 46 47 48 49 50
000
ASUS43 KBIS 171610
RWRND

NORTH DAKOTA REGIONAL WEATHER ROUNDUP
NATIONAL WEATHER SERVICE BISMARCK ND
1100 AM CDT THU AUG 17 2017

NOTE: "FAIR" INDICATES FEW OR NO CLOUDS BELOW 12,000 FEET WITH NO
SIGNIFICANT WEATHER AND/OR OBSTRUCTIONS TO VISIBILITY.


NDZ001>003-009>011-017-171700-
NORTHWEST NORTH DAKOTA

CITY           SKY/WX    TMP DP  RH WIND       PRES   REMARKS
WILLISTON      MOSUNNY   72  54  53 CALM      29.85R
MINOT          SUNNY     77  54  44 SE8       29.87R
MINOT AFB      SUNNY     77  54  44 S5        29.85F
$$

NDZ018>021-031>035-040>046-171700-
SOUTHWEST NORTH DAKOTA

CITY           SKY/WX    TMP DP  RH WIND       PRES   REMARKS
BISMARCK       SUNNY     75  58  55 S5        29.91S
DICKINSON      SUNNY     73  53  49 S12       29.87S
GARRISON         N/A     71  59  65 S12       29.88S
HETTINGER ARPT SUNNY     74  52  46 S10       29.91F
$$

NDZ004>008-012>016-024-026-027-054-171700-
NORTHEAST NORTH DAKOTA

CITY           SKY/WX    TMP DP  RH WIND       PRES   REMARKS
GRAND FORKS    MOSUNNY   69  63  81 N8        29.83S
GRND FRKS AFB  MOSUNNY   68  62  80 N8        29.85S
DEVILS LAKE    CLOUDY    69  60  73 NW7       29.89R
$$

NDZ022-023-025-028>030-036>039-047>053-171700-
SOUTHEAST NORTH DAKOTA

CITY           SKY/WX    TMP DP  RH WIND       PRES   REMARKS
FARGO          MOSUNNY   68  62  81 N12       29.83S
JAMESTOWN      CLOUDY    70  58  65 NW3       29.88S
$$





USA.gov is the U.S. government's official web portal to all federal, state and local government web resources and services.